�N����,����,�~����,�C��,���x,�C��,����,���ϕ���,�ő�u�ԕ���,�ő厞����,���˗�,�I�_���x,�n�����x,�ő啗���N��,DTYPE
"20/01/24","00:10",0.0,9.0,98.0,1016.4,308.6,1.1,1.4,311.1,0.00,8.7,8.9,"00:01:12",1
"20/01/24","00:20",0.0,9.1,97.6,1016.6,296.0,1.3,1.4,291.6,0.00,8.8,8.9,"00:11:12",1
"20/01/24","00:30",0.0,8.9,98.0,1016.4,303.4,1.0,1.3,299.6,0.00,8.6,9.1,"00:20:02",1
"20/01/24","00:40",0.0,9.0,97.6,1016.4,320.1,1.1,2.0,321.2,0.00,8.7,9.0,"00:30:40",1
"20/01/24","00:50",0.0,8.9,98.1,1016.8,281.7,1.2,1.7,323.6,0.00,8.7,8.9,"00:48:08",1
"20/01/24","01:00",0.0,9.1,97.7,1016.8,324.1,1.5,2.0,313.3,0.00,8.8,9.0,"00:52:16",1
"20/01/24","01:10",0.0,9.0,98.1,1017.1,316.5,1.1,2.1,326.0,0.00,8.8,9.0,"01:09:18",1
"20/01/24","01:20",0.0,9.0,97.6,1016.6,292.4,1.3,2.4,323.4,0.00,8.7,8.8,"01:10:48",1
"20/01/24","01:30",0.0,8.9,98.1,1017.1,295.5,1.5,2.2,319.6,0.00,8.7,8.8,"01:25:52",1
"20/01/24","01:40",0.0,9.2,97.7,1017.1,324.3,1.5,2.0,322.4,0.00,8.9,8.9,"01:30:56",1
"20/01/24","01:50",0.0,9.0,98.1,1017.1,279.1,0.7,1.2,289.4,0.00,8.8,8.9,"01:47:20",1
"20/01/24","02:00",0.0,9.0,97.7,1017.8,291.5,1.3,2.1,317.5,0.00,8.7,8.8,"01:55:04",1
"20/01/24","02:10",0.0,8.9,98.2,1017.1,306.5,1.5,2.2,321.9,0.00,8.7,8.9,"02:02:32",1
"20/01/24","02:20",0.0,9.0,97.7,1017.3,308.9,1.1,2.2,323.1,0.00,8.7,8.8,"02:11:20",1
"20/01/24","02:30",0.0,8.9,98.2,1017.3,314.0,1.0,2.0,333.7,0.00,8.7,9.0,"02:29:20",1
"20/01/24","02:40",0.0,8.9,97.9,1017.5,316.0,1.6,1.9,314.3,0.00,8.6,9.0,"02:34:40",1
"20/01/24","02:50",0.0,8.7,98.3,1017.1,317.8,1.3,2.0,336.7,0.00,8.5,9.1,"02:42:16",1
"20/01/24","03:00",0.0,8.7,97.9,1017.3,285.3,1.3,1.6,314.0,0.00,8.4,8.8,"02:50:56",1
"20/01/24","03:10",0.0,8.7,98.3,1017.3,259.2,1.1,2.1,263.8,0.00,8.5,8.7,"03:00:48",1
"20/01/24","03:20",0.0,8.8,97.9,1017.3,352.1,0.3,0.8,314.5,0.00,8.5,8.7,"03:14:32",1
"20/01/24","03:30",0.0,8.4,98.4,1017.3,312.2,0.7,1.6,271.4,0.00,8.2,8.8,"03:22:48",1
"20/01/24","03:40",0.0,8.5,98.0,1017.3,324.4,1.3,2.4,336.9,0.00,8.2,8.8,"03:38:48",1
"20/01/24","03:50",0.0,8.2,97.9,1017.8,301.9,1.2,2.1,338.2,0.00,7.9,8.7,"03:40:32",1
"20/01/24","04:00",0.0,7.8,98.5,1017.3,301.5,1.1,2.1,333.5,0.00,7.6,8.7,"03:54:00",1
"20/01/24","04:10",0.0,7.9,98.2,1018.0,296.9,1.2,1.9,321.9,0.00,7.7,8.7,"04:08:32",1
"20/01/24","04:20",0.0,8.3,98.1,1017.8,310.0,1.3,1.8,319.3,0.00,8.1,8.4,"04:17:28",1
"20/01/24","04:30",0.0,8.4,98.1,1017.5,314.7,1.5,2.0,321.2,0.00,8.2,8.6,"04:26:00",1
"20/01/24","04:40",0.0,8.4,98.0,1017.8,293.4,1.0,1.3,310.3,0.00,8.1,8.8,"04:30:48",1
"20/01/24","04:50",0.0,8.5,98.1,1017.8,308.6,1.1,1.7,321.5,0.00,8.3,8.7,"04:40:02",1
"20/01/24","05:00",0.0,8.7,97.9,1017.5,310.8,1.2,1.8,319.0,0.00,8.4,8.5,"04:50:32",1
"20/01/24","05:10",0.0,8.3,98.4,1017.5,289.1,1.2,2.2,312.3,0.00,8.1,8.7,"05:00:40",1
"20/01/24","05:20",0.0,8.2,98.1,1017.5,308.9,1.6,1.9,323.1,0.00,8.0,8.5,"05:13:44",1
"20/01/24","05:30",0.0,8.0,98.1,1018.0,280.3,1.1,1.3,296.0,0.00,7.8,8.6,"05:20:08",1
"20/01/24","05:40",0.0,8.0,98.1,1017.8,299.5,1.1,1.4,315.4,0.00,7.8,8.7,"05:30:16",1
"20/01/24","05:50",0.0,7.9,98.1,1017.8,308.3,1.0,2.4,318.9,0.00,7.7,8.6,"05:48:00",1
"20/01/24","06:00",0.0,7.6,98.2,1018.0,309.7,1.2,1.9,321.8,0.00,7.4,8.4,"05:56:32",1
"20/01/24","06:10",0.0,7.7,98.3,1018.0,321.0,1.0,2.1,322.0,0.00,7.5,8.6,"06:09:28",1
"20/01/24","06:20",0.0,7.6,98.2,1018.5,296.6,1.3,1.8,303.6,0.00,7.4,8.5,"06:10:08",1
"20/01/24","06:30",0.0,7.7,98.3,1018.0,301.0,0.6,1.3,317.7,0.00,7.5,8.4,"06:20:08",1
"20/01/24","06:40",0.0,7.8,98.2,1018.0,307.3,1.0,1.6,319.5,0.00,7.6,8.5,"06:34:40",1
"20/01/24","06:50",0.0,7.8,98.2,1018.2,313.1,1.3,2.5,321.3,0.00,7.6,8.5,"06:41:20",1
"20/01/24","07:00",0.0,7.7,98.2,1018.0,319.7,0.8,1.8,313.6,0.00,7.5,8.4,"06:55:44",1
"20/01/24","07:10",0.0,7.7,98.3,1018.5,292.1,1.2,1.7,318.4,0.00,7.5,8.4,"07:09:36",1
"20/01/24","07:20",0.0,7.8,98.3,1018.5,304.0,1.5,2.1,319.8,0.00,7.6,8.3,"07:10:56",1
"20/01/24","07:30",0.0,7.9,98.3,1018.7,320.5,1.3,2.5,316.0,0.00,7.7,8.6,"07:29:36",1
"20/01/24","07:40",0.0,7.7,98.3,1019.2,305.8,1.2,1.8,319.4,0.00,7.5,8.3,"07:38:16",1
"20/01/24","07:50",0.0,7.5,98.3,1019.2,274.7,0.7,1.2,309.3,0.00,7.3,8.5,"07:40:08",1
"20/01/24","08:00",0.0,7.7,98.4,1018.5,313.5,0.7,2.6,321.3,0.00,7.5,8.3,"07:50:02",1
"20/01/24","08:10",0.0,7.5,98.4,1019.2,318.5,1.8,2.8,320.4,0.00,7.3,8.5,"08:00:40",1
"20/01/24","08:20",0.0,7.9,98.4,1019.2,315.8,1.3,2.4,320.0,0.01,7.7,8.5,"08:10:08",1
"20/01/24","08:30",0.0,8.1,98.3,1019.0,272.3,0.7,1.0,276.0,0.01,7.9,8.4,"08:27:12",1
"20/01/24","08:40",0.0,8.2,98.3,1019.4,292.6,1.3,1.9,313.0,0.02,8.0,8.5,"08:38:48",1
"20/01/24","08:50",0.0,8.5,98.3,1019.7,274.4,1.1,1.8,297.5,0.02,8.3,8.6,"08:44:16",1
"20/01/24","09:00",0.0,8.7,98.3,1019.9,302.0,0.3,1.0,323.1,0.04,8.5,8.4,"08:57:04",1
"20/01/24","09:10",0.0,9.0,98.2,1019.9,299.2,1.0,2.1,330.2,0.05,8.8,8.6,"09:03:20",1
"20/01/24","09:20",0.0,9.2,98.2,1019.9,284.5,1.3,2.0,315.5,0.06,9.0,8.4,"09:10:08",1
"20/01/24","09:30",0.0,9.4,98.1,1020.4,282.9,1.1,1.3,267.6,0.08,9.2,8.7,"09:21:44",1
"20/01/24","09:40",0.0,9.8,98.1,1020.4,289.3,1.2,1.8,314.6,0.10,9.6,8.7,"09:34:56",1
"20/01/24","09:50",0.0,10.2,98.0,1020.6,312.8,1.5,2.4,317.2,0.13,9.9,8.7,"09:49:36",1
"20/01/24","10:00",0.0,10.3,97.9,1021.1,303.5,1.5,2.6,330.7,0.12,10.0,8.9,"09:51:36",1
"20/01/24","10:10",0.0,10.3,98.3,1020.8,300.1,0.8,1.8,321.4,0.07,10.1,9.0,"10:08:16",1
"20/01/24","10:20",0.0,10.6,97.9,1020.8,307.8,1.1,1.8,329.7,0.07,10.3,9.0,"10:11:52",1
"20/01/24","10:30",0.0,10.4,98.3,1021.1,304.1,0.8,1.6,322.6,0.05,10.2,9.2,"10:20:24",1
"20/01/24","10:40",0.0,10.8,97.9,1021.1,322.1,1.5,2.0,334.3,0.11,10.5,9.2,"10:31:28",1
"20/01/24","10:50",0.0,10.8,98.3,1021.1,309.2,1.0,1.7,318.8,0.05,10.6,9.1,"10:40:32",1
"20/01/24","11:00",0.0,11.1,97.9,1021.3,316.2,1.1,2.0,316.4,0.10,10.8,9.2,"10:57:04",1
"20/01/24","11:10",0.0,11.4,98.4,1021.1,323.9,1.2,2.0,333.9,0.16,11.2,9.5,"11:00:48",1
"20/01/24","11:20",0.0,11.8,97.7,1020.8,325.5,1.1,2.0,340.8,0.12,11.5,9.7,"11:19:28",1
"20/01/24","11:30",0.0,11.5,97.9,1021.5,330.1,2.0,3.9,311.0,0.19,11.2,9.5,"11:29:44",1
"20/01/24","11:40",0.0,11.6,97.3,1020.8,332.7,3.0,4.5,328.0,0.23,11.2,9.8,"11:33:52",1
"20/01/24","11:50",0.0,11.4,96.0,1021.1,332.7,3.2,6.5,318.2,0.15,10.8,9.8,"11:48:48",1
"20/01/24","12:00",0.0,11.5,95.6,1021.5,345.6,2.7,5.0,342.8,0.13,10.9,9.7,"11:53:44",1
"20/01/24","12:10",0.0,12.0,94.9,1021.5,351.3,2.1,3.9,353.2,0.18,11.2,9.9,"12:06:08",1
"20/01/24","12:20",0.0,12.4,93.8,1021.8,334.0,2.5,4.4,330.3,0.20,11.5,10.0,"12:16:00",1
"20/01/24","12:30",0.0,12.6,90.9,1021.3,340.4,2.8,5.9,339.8,0.19,11.2,9.9,"12:25:28",1
"20/01/24","12:40",0.0,12.6,88.0,1021.1,336.9,2.6,5.0,328.4,0.17,10.7,10.1,"12:34:00",1
"20/01/24","12:50",0.0,12.7,83.4,1021.1,338.6,2.6,5.7,343.3,0.15,10.0,10.3,"12:41:28",1
"20/01/24","13:00",0.0,12.7,78.9,1021.1,342.3,2.6,4.9,337.6,0.13,9.2,10.2,"12:55:28",1
"20/01/24","13:10",0.0,12.7,75.9,1020.6,347.2,3.4,7.3,340.2,0.15,8.6,10.4,"13:02:40",1
"20/01/24","13:20",0.2,12.5,74.5,1020.4,343.2,3.7,7.5,333.6,0.15,8.1,10.4,"13:19:54",1
"20/01/24","13:30",0.0,12.4,73.9,1020.6,340.3,4.1,8.0,336.1,0.16,7.9,10.4,"13:28:48",1
"20/01/24","13:40",0.0,12.5,73.2,1020.1,338.7,4.2,8.6,340.3,0.18,7.9,10.4,"13:37:12",1
"20/01/24","13:50",0.0,12.3,72.3,1020.4,335.0,4.5,8.9,341.2,0.15,7.5,10.5,"13:43:20",1
"20/01/24","14:00",0.0,12.5,72.3,1019.9,332.2,4.1,8.3,331.9,0.18,7.7,10.4,"13:52:08",1
"20/01/24","14:10",0.0,12.7,71.2,1020.4,332.7,3.2,7.8,340.4,0.22,7.7,10.4,"14:00:16",1
"20/01/24","14:20",0.0,13.0,69.7,1019.9,308.4,2.2,3.4,320.2,0.21,7.6,10.5,"14:10:02",1
"20/01/24","14:30",0.0,13.0,67.3,1019.9,334.2,3.4,6.8,341.2,0.23,7.1,10.6,"14:26:00",1
"20/01/24","14:40",0.0,13.5,66.4,1020.1,342.2,1.7,3.1,343.4,0.24,7.4,10.5,"14:32:48",1
"20/01/24","14:50",0.0,12.7,65.1,1020.1,331.7,4.4,7.3,344.0,0.15,6.4,10.9,"14:44:16",1
"20/01/24","15:00",0.0,12.7,65.5,1020.4,334.0,3.9,6.5,336.0,0.15,6.4,10.8,"14:51:36",1
"20/01/24","15:10",0.0,12.4,65.3,1020.4,337.4,4.0,7.3,329.1,0.12,6.1,10.8,"15:03:04",1
"20/01/24","15:20",0.0,12.4,65.3,1020.1,339.0,3.4,5.8,321.3,0.12,6.1,11.0,"15:17:12",1
"20/01/24","15:30",0.0,12.5,65.4,1020.1,342.1,3.4,7.8,338.4,0.13,6.2,10.7,"15:26:48",1
"20/01/24","15:40",0.0,12.4,65.4,1020.1,336.7,3.0,6.8,335.8,0.11,6.1,10.8,"15:39:28",1
"20/01/24","15:50",0.0,12.4,64.7,1020.4,322.4,3.2,7.5,330.9,0.13,6.0,10.7,"15:41:28",1
"20/01/24","16:00",0.0,12.4,64.8,1019.7,335.2,2.0,3.9,328.3,0.10,6.0,10.6,"15:57:52",1
"20/01/24","16:10",0.0,12.3,64.9,1020.4,333.5,2.2,4.0,340.1,0.07,5.9,11.0,"16:02:40",1
"20/01/24","16:20",0.0,12.3,65.0,1020.1,330.8,2.1,4.9,323.1,0.08,6.0,10.8,"16:17:36",1
"20/01/24","16:30",0.0,12.2,64.5,1020.1,328.9,2.8,5.4,323.2,0.06,5.7,10.7,"16:24:24",1
"20/01/24","16:40",0.0,12.3,64.7,1020.4,331.6,1.8,3.6,349.6,0.07,5.9,10.8,"16:30:40",1
"20/01/24","16:50",0.0,12.6,64.2,1020.4,339.0,1.5,2.9,336.1,0.06,6.1,10.7,"16:49:52",1
"20/01/24","17:00",0.0,12.0,65.5,1020.6,330.4,3.1,5.2,325.5,0.01,5.8,10.6,"16:55:36",1
"20/01/24","17:10",0.0,11.6,67.5,1020.4,330.4,3.0,5.5,329.6,0.00,5.8,10.5,"17:03:48",1
"20/01/24","17:20",0.0,11.3,69.1,1020.6,328.8,3.0,5.5,297.8,0.00,5.9,10.7,"17:19:34",1
"20/01/24","17:30",0.0,11.2,70.1,1020.6,336.3,2.7,5.0,343.3,0.00,6.0,10.3,"17:20:32",1
"20/01/24","17:40",0.0,11.1,71.1,1021.3,342.3,2.5,4.4,339.7,0.00,6.1,10.6,"17:35:00",1
"20/01/24","17:50",0.0,10.9,72.3,1020.6,330.4,3.0,4.4,323.8,0.00,6.2,10.4,"17:42:26",1
"20/01/24","18:00",0.0,10.7,73.3,1020.8,326.3,3.1,5.5,330.8,0.00,6.2,10.3,"17:53:38",1
"20/01/24","18:10",0.0,10.6,74.1,1021.1,328.6,2.5,3.9,350.1,0.00,6.2,10.2,"18:00:16",1
"20/01/24","18:20",0.0,10.4,75.0,1021.1,322.7,3.0,4.2,325.9,0.00,6.2,10.4,"18:10:16",1
"20/01/24","18:30",0.0,10.4,76.0,1020.8,326.0,2.8,5.9,344.0,0.00,6.4,10.3,"18:20:56",1
"20/01/24","18:40",0.0,10.0,76.9,1021.3,331.7,2.2,4.3,311.1,0.00,6.2,10.1,"18:36:00",1
"20/01/24","18:50",0.0,9.7,78.1,1021.3,331.7,2.3,3.7,334.6,0.00,6.1,10.1,"18:41:28",1
"20/01/24","19:00",0.0,9.8,79.3,1021.5,326.6,2.5,3.4,329.2,0.00,6.4,9.9,"18:51:04",1
"20/01/24","19:10",0.0,9.7,80.0,1021.3,317.6,2.7,4.3,330.2,0.00,6.5,10.0,"19:03:52",1
"20/01/24","19:20",0.0,9.7,80.6,1021.8,323.0,2.7,4.5,311.6,0.00,6.6,10.0,"19:10:56",1
"20/01/24","19:30",0.0,9.6,81.1,1022.0,307.5,2.5,3.9,337.3,0.00,6.6,9.8,"19:25:44",1
"20/01/24","19:40",0.0,9.5,81.7,1021.5,314.9,2.3,3.5,331.4,0.00,6.6,9.9,"19:37:12",1
"20/01/24","19:50",0.0,9.5,82.0,1022.3,315.3,2.6,3.6,328.0,0.00,6.6,9.9,"19:42:00",1
"20/01/24","20:00",0.0,9.5,81.9,1021.8,314.1,2.6,3.7,333.5,0.00,6.6,9.8,"19:58:00",1
"20/01/24","20:10",0.0,9.5,81.7,1022.3,325.4,2.5,3.5,335.9,0.00,6.6,9.7,"20:04:08",1
"20/01/24","20:20",0.0,9.5,81.3,1022.7,324.3,3.0,4.7,306.5,0.00,6.5,9.7,"20:15:28",1
"20/01/24","20:30",0.0,9.5,80.9,1023.0,322.6,2.7,4.4,335.2,0.00,6.4,9.6,"20:21:52",1
"20/01/24","20:40",0.0,9.4,80.5,1022.7,319.7,2.5,4.0,334.1,0.00,6.3,9.5,"20:38:34",1
"20/01/24","20:50",0.0,9.3,80.1,1023.0,323.5,2.5,3.9,330.0,0.00,6.1,9.6,"20:41:04",1
"20/01/24","21:00",0.0,9.3,79.7,1023.2,323.1,3.4,5.8,322.6,0.00,6.0,9.5,"20:52:24",1
"20/01/24","21:10",0.0,9.1,79.4,1023.2,326.0,3.6,6.0,336.8,0.00,5.8,9.5,"21:08:16",1
"20/01/24","21:20",0.0,9.1,79.2,1023.4,326.2,3.5,5.6,329.2,0.00,5.7,9.5,"21:17:36",1
"20/01/24","21:30",0.0,8.9,79.1,1023.7,325.3,3.7,6.7,332.5,0.00,5.5,9.3,"21:25:44",1
"20/01/24","21:40",0.0,8.7,79.3,1023.7,333.9,3.7,6.0,354.4,0.00,5.4,9.6,"21:38:56",1
"20/01/24","21:50",0.0,8.6,79.1,1023.7,328.7,3.2,5.8,348.6,0.00,5.2,9.5,"21:40:40",1
"20/01/24","22:00",0.0,8.6,78.8,1023.7,329.1,3.6,8.9,337.4,0.00,5.2,9.5,"21:59:52",1
"20/01/24","22:10",0.0,8.5,78.6,1023.7,324.4,4.1,7.4,310.3,0.00,5.0,9.3,"22:06:58",1
"20/01/24","22:20",0.0,8.4,78.3,1023.9,331.5,3.6,6.0,343.1,0.00,4.9,9.2,"22:15:44",1
"20/01/24","22:30",0.0,8.3,77.6,1024.1,323.5,3.9,6.6,312.6,0.00,4.7,9.2,"22:26:34",1
"20/01/24","22:40",0.0,8.3,76.5,1023.7,327.3,3.6,7.1,327.9,0.00,4.5,9.2,"22:39:44",1
"20/01/24","22:50",0.0,8.3,75.7,1024.1,330.0,3.2,5.8,325.3,0.00,4.3,9.2,"22:42:08",1
"20/01/24","23:00",0.0,8.2,75.4,1023.9,322.4,2.2,3.6,336.8,0.00,4.2,9.2,"22:59:28",1
"20/01/24","23:10",0.0,8.1,75.2,1024.1,322.8,3.0,5.1,328.9,0.00,4.0,9.1,"23:01:52",1
"20/01/24","23:20",0.0,8.1,74.9,1024.1,312.5,3.1,5.1,335.4,0.00,4.0,9.0,"23:15:28",1
"20/01/24","23:30",0.0,8.0,74.3,1024.1,327.2,3.7,7.8,334.3,0.00,3.8,9.2,"23:29:22",1
"20/01/24","23:40",0.0,8.0,73.6,1024.9,327.7,3.7,7.0,321.2,0.00,3.6,9.2,"23:34:08",1
"20/01/24","23:50",0.0,8.0,73.2,1024.6,333.4,3.4,7.5,326.8,0.00,3.5,9.1,"23:42:40",1
"20/01/24","24:00",0.0,7.9,73.0,1025.1,336.1,3.4,5.6,338.6,0.00,3.4,9.0,"23:58:56",1
